UmKA 1 (RS40S)
1 57172U 23091G   26151.84123350  .00007786  00000-0  35743-3 0  9991
2 57172  97.5058 210.6028 0013232 169.9246 190.2257 15.20611264161524
CubeBel-2 (EU11S)
1 57175U 23091K   26151.82223003  .00014791  00000-0  53096-3 0  9993
2 57175  97.5060 214.8973 0010612 165.3082 194.8468 15.28729485161800
RS-38S
1 57189U 23091Z   26151.85849259  .00019903  00000-0  57855-3 0  9995
2 57189  97.5101 221.0228 0008809 126.2104 233.9955 15.35460139162184
SONATE-2
1 59112U 24043Q   26151.37588684  .00053460  00000-0  72714-3 0  9997
2 59112  97.5514 300.7593 0006100 255.2039 104.8540 15.57398808125274
GRBBeta
1 60237U 24128C   26151.69370205  .00005767  00000-0  39466-3 0  9998
2 60237  61.9909 274.1276 0042934 131.2161 229.2646 15.06503188103787
Curium One
1 60242U 24128H   26151.77347410  .00011527  00000-0  66090-3 0  9999
2 60242  61.9793 263.8988 0042066 127.6412 232.8513 15.12252615103970
ROBUSTA-3A
1 60243U 24128J   26151.79537475  .00012008  00000-0  70279-3 0  9993
2 60243  61.9874 266.2015 0043566 124.9783 235.5414 15.11426979103948
CatSat
1 60246U 24125J   26151.56549043  .00063747  00000-0  88171-3 0  9998
2 60246  97.2098   3.8738 0021527 239.7550 120.1575 15.56647240104806
HYPERVIEW-1G (RS66S)
1 61772U 24199AP  26151.84816464  .00130102  00000-0  10004-2 0  9998
2 61772  97.2909  30.7920 0002981 352.9154   7.2067 15.71627324132108
AO-123
1 61781U 24199AY  26151.80851825  .00009254  00000-0  27039-3 0  9994
2 61781  97.3020  20.6287 0014163  15.2599 344.9069 15.35417881131415
JINJUSat 1B
1 63210U 25052A   26151.63424126  .00020567  00000-0  64764-3 0  9999
2 63210  97.4027  48.3733 0004954 126.2799 233.8901 15.32940822 67565
NUSHSAT 1
1 63211U 25052B   26151.70382278  .00025575  00000-0  74727-3 0  9993
2 63211  97.4007  48.9532 0004715 125.9334 234.2348 15.35272441 67617
TEVEL2-4
1 63213U 25052D   26151.68206625  .00023463  00000-0  71454-3 0  9991
2 63213  97.3931  48.0530 0003886 135.1263 225.0295 15.33983146 67589
TEVEL2-5
1 63214U 25052E   26151.70075949  .00021443  00000-0  65678-3 0  9995
2 63214  97.3928  48.0238 0003775 135.5172 224.6374 15.33819891 67589
TEVEL2-6
1 63215U 25052F   26151.64745499  .00022895  00000-0  70186-3 0  9995
2 63215  97.3931  47.9549 0003882 135.3365 224.8191 15.33778928 67571
TEVEL2-1
1 63217U 25052H   26151.67086295  .00023004  00000-0  71654-3 0  9996
2 63217  97.3901  47.6220 0003623 144.2950 215.8535 15.33270242 67562
TEVEL2-3
1 63218U 25052J   26151.66608101  .00023021  00000-0  71595-3 0  9995
2 63218  97.3903  47.6376 0003537 145.3874 214.7599 15.33321295 67561
TEVEL2-2
1 63219U 25052K   26151.67126382  .00022835  00000-0  71115-3 0  9993
2 63219  97.3902  47.6247 0003508 146.4369 213.7096 15.33277480 67564
TEVEL2-9
1 63237U 25052AD  26151.69294523  .00018965  00000-0  62775-3 0  9999
2 63237  97.3958  47.0571 0006009 180.2577 179.8662 15.31350047 67509
TEVEL2-7
1 63238U 25052AE  26151.66540704  .00020472  00000-0  68321-3 0  9991
2 63238  97.3966  46.9520 0006111 181.5260 178.5964 15.31067500 67496
TEVEL2-8
1 63239U 25052AF  26151.67348214  .00020360  00000-0  67986-3 0  9997
2 63239  97.3967  46.9381 0006058 181.6605 178.4617 15.31051145 67499
SPIRONE
1 66657U 25274H   26151.77352439  .00002581  00000-0  25039-3 0  9993
2 66657  97.7488  81.3004 0013746  71.1468 289.1241 14.93473076 27773
K-HERO
1 66660U 25274L   26151.78272105  .00002253  00000-0  21680-3 0  9993
2 66660  97.7493  81.4588 0015528  74.8150 285.4786 14.93892549 27783
SNUGLITE-III DURI
1 66661U 25274M   26151.70399569  .00002215  00000-0  21291-3 0  9996
2 66661  97.7494  81.4010 0016289  76.0016 284.3014 14.93942707 27778
SAKHACUBE-CHOLBON
1 67290U 25313AU  26151.68786213  .00013468  00000-0  54840-3 0  9990
2 67290  97.3938 226.9319 0010367  60.4701 299.7569 15.24563850 23463
RS95S (QMR-KWT-2)
1 67291U 25313AV  26151.69057213  .00018851  00000-0  73769-3 0  9995
2 67291  97.3940 227.0778 0009819  60.1489 300.0724 15.25825569 23477
Ten-Koh2
1 68261U 25241B   26151.09529987  .00008484  00000-0  36212-3 0  9992
2 68261  51.6652  40.9597 0006629  92.2447 267.9290 15.23675833 12309
JACK-002
1 68417U 26067B   26151.43241221  .00010342  00000-0  49478-3 0  9996
2 68417  97.4560 110.2340 0002192  32.7929 327.3441 15.19165986  9404
DISCO 2
1 68431U 26067R   26151.84508635  .00010027  00000-0  48482-3 0  9996
2 68431  97.4593 110.6311 0004005  71.8634 288.3036 15.18800149  9468
HADES-SA (SpinnyONE)
1 68446U 26067AG  26151.42118706  .00022795  00000-0  11065-2 0  9993
2 68446  97.4407 109.9781 0009218 123.8123 236.3990 15.18441624  9384
PARUS-6U1
1 68456U 26067AS  26151.83459103  .00007437  00000-0  37587-3 0  9992
2 68456  97.4547 110.4530 0007416 113.8975 246.3036 15.17328665  9459
SAL-E
1 68458U 26067AU  26151.43663581  .00012023  00000-0  60230-3 0  9995
2 68458  97.4473 110.0085 0007578 122.1196 238.0774 15.17497041  9392
FSI-SAT 2
1 68792U 26088A   26151.35139186  .00006857  00000-0  46464-3 0  9990
2 68792  97.5052 301.0372 0015117 159.9850 200.1974 15.06685887  5754
OrigamiSat 2
1 68795U 26088D   26151.38032598  .00004833  00000-0  31479-3 0  9997
2 68795  97.5090 301.1597 0015944 134.6822 225.5709 15.08287275  5765
ARICA 2
1 68796U 26088E   26151.84202578  .00006069  00000-0  39427-3 0  9990
2 68796  97.5035 301.6034 0016821 132.0887 228.1775 15.08274905  5830
WASEDA-SAT-ZERO-II
1 68797U 26088F   26151.83976917  .00008623  00000-0  55593-3 0  9995
2 68797  97.5033 301.6059 0016660 132.1231 228.1416 15.08430914  5837
MANGARO-II-Piscus
1 68798U 26088G   26151.83212943  .00006061  00000-0  38918-3 0  9994
2 68798  97.5047 301.6207 0020177 134.9762 225.3107 15.08649018  5838
IO-86
1 40931U          25360.30710720  .00000000  00000-0  12800-3 0    00
2 40931   6.0006 332.5373 0012733 338.8432   8.1437 14.79075515    01
LILIUM-4                
1 71922C 26067AC  26089.50133053 -.00014632  00000+0 -74472-3 0    04
2 71922  97.4497  49.1617 0004341   5.9603 355.7042 15.16896692    16
